sat.trackr.live / text

‹ back to catalog

UNKNOWN

NORAD 85106

UNKNOWN UNKNOWN UNKNOWN

§ Identity

Operator
Country
Launch date
Launch site
Launch vehicle
Mass (kg)
RCS (m²)

External: N2YO · Heavens-Above

§ Orbital elements

Epoch: 2026-09-18T13:58:15.231936Z

Period
104.86 min
Inclination
100.0717°
Eccentricity
0.0009654
Mean motion
13.73231179 rev/d
Perigee alt
980.9 km
Apogee alt
995.1 km
Semi-major
7,366.1 km
B*
5.6522e-4
RAAN
21.4183°
Arg perigee
24.7831°
Mean anomaly
40.6385°
Rev number
64,147

§ Raw data

UNKNOWN1 85106U          26261.58212074  .00000475  00000+0  56522-3 0  99942 85106 100.0717  21.4183 0009654  24.7831  40.6385 13.73231179641471

JSON: /api/v1/satellites/85106 · /tle

For live sub-satellite position, see the globe view (requires WebGL).

§ Visibility from observer

Set your observer location to see the next 7 days of passes ≥ 10°. The values pass through the URL so the page stays shareable.

No JS? Fill the form by hand. The geolocation button needs JavaScript.